Regional Weather Roundup
Issued by NWS Jackson, KY

Home | Current Version | Previous Version | Graphics & Text | Print | Product List | Glossary On
Versions: 1 2 3 4 5 6 7 8 9 10 11 12 13 14 15 16 17 18 19 20 21 22 23 24 25 26 27 28 29 30 31 32 33 34 35 36 37 38 39 40 41 42 43 44 45 46 47 48 49 50
000
ASUS43 KJKL 051510
RWRJKL

EAST KENTUCKY HOURLY WEATHER ROUNDUP
NATIONAL WEATHER SERVICE JACKSON KY
1000 AM EST MON DEC 05 2016

NOTE: "FAIR" INDICATES FEW OR NO CLOUDS BELOW 12,000 FEET WITH
NO SIGNIFICANT WEATHER AND/OR OBSTRUCTIONS TO VISIBILITY.

* THESE REPORTS ARE NOT UNDER NWS QUALITY CONTROL AND MAY NOT
  REPORT WEATHER SUCH AS PRECIPITATION AND FOG.

KYZ079-080-083-085-087-088-110-112-115-119-120-051600
...EASTERN KENTUCKY...

CITY           SKY/WX    TMP DP  RH WIND       PRES   REMARKS
JACKSON        CLOUDY    44  37  76 CALM      30.09R
LONDON         CLOUDY    44  39  82 N6        30.09R
SOMERSET*      CLOUDY    41  37  87 NE6       30.11R
MONTICELLO*    CLOUDY    43  40  89 VRB7      30.10R
WILLIAMSBURG*  CLOUDY    45  45 100 NE3       30.09R
MIDDLESBORO*   CLOUDY    46  42  87 CALM      30.09R
HARLAN APT*    CLOUDY    46  41  81 CALM      30.07R
PIKE CO APT*   CLOUDY    43  42  93 N3        30.09R
BIG SANDY APT* CLOUDY    45  40  83 CALM      30.10R
MOREHEAD APT*  PTSUNNY   41  36  81 CALM      30.12R
ASHLAND*       CLOUDY    45  37  76 N5        30.10S
$$

KYZ035-036-041-042-044-050-067-078-099-051600
...CENTRAL KENTUCKY...

CITY           SKY/WX    TMP DP  RH WIND       PRES   REMARKS
MT STERLING*   CLOUDY    41  34  75 NE3       30.12R
FLEMING/MASON* PTSUNNY   40  34  77 CALM      30.12R
DANVILLE*      CLOUDY    39  34  81 E5        30.11R
LEXINGTON      CLOUDY    40  33  76 E8        30.10R WCI  34
FRANKFORT      CLOUDY    40  32  73 E5        30.10S
LOUISVILLE     CLOUDY    41  32  70 CALM      30.12R
LEBANON*       CLOUDY    39  34  81 CALM      30.10R
GLASGOW*       CLOUDY    39  39 100 NE10      30.10R WCI  32
BOWLING GREEN  CLOUDY    40  36  86 E12       30.10R WCI  33
$$

KYZ091>093-OHZ055-061-077-WVZ005-015-034-035-042-051600
...SOUTHERN OHIO/WEST VIRGINIA...

CITY           SKY/WX    TMP DP  RH WIND       PRES   REMARKS
COVINGTON      CLOUDY    37  31  78 CALM      30.11R
COLUMBUS       CLOUDY    37  30  75 W3        30.12R
DAYTON         CLOUDY    35  30  82 CALM      30.10S
WILMINGTON     CLOUDY    37  30  75 CALM      30.11R
HUNTINGTON     CLOUDY    45  37  73 N7        30.10R
CHARLESTON     MOSUNNY   47  35  63 VRB5      30.08S
PINEVILLE*     CLOUDY    46  39  77 MISG      30.11R
BECKLEY        CLOUDY    41  36  82 NW7       30.05R
BLUEFIELD      CLOUDY    41  35  79 NW8       30.05R
LOGAN CO APT*  CLOUDY    45  39  81 CALM      30.07R
$$

VAZ002-007-008-TNZ017-027-036-066-071-051600
...SOUTHWEST VIRGINIA/EAST TENNESSEE...

CITY           SKY/WX    TMP DP  RH WIND       PRES   REMARKS
WISE*          CLOUDY    43  43 100 CALM      30.07R
JONESVILLE*    CLOUDY    48  46  93 CALM      30.10R
ABINGDON*      CLOUDY    48  46  93 CALM      30.07R
BRISTOL        CLOUDY    49  46  90 NE3       30.06R
MORRISTOWN*    CLOUDY    46  46 100 CALM      30.06R FOG
SEVIERVILLE*   CLOUDY    46  46 100 E3        30.05R
KNOXVILLE      DRIZZLE   48  46  93 NE7       30.04R FOG
OAK RIDGE      CLOUDY    50  46  86 E6        30.06R
CROSSVILLE     CLOUDY    44  42  93 NE8       30.03S
NASHVILLE      CLOUDY    43  40  89 NE10      30.07S FOG
$$

...KEY TO REMARKS...
VSB - VISIBILITY IN MILES
WCI - WIND CHILL INDEX
HX  - HEAT INDEX

$$



USA.gov is the U.S. government's official web portal to all federal, state and local government web resources and services.